Date String (YYYY-MM-DD hh:mm:ss) UTC,Instrument flags,Ambient pressure (hPa),Sample flow (lpm),Bypass flow (lpm),Sample temperature (°C),Ambient temperature (°C),ASC tube jacket temperature (°C),LED temperature (°C),Box temperature (°C),Sample RH (%),Span deviation,Mass concentration (μg/m³),Mass concentration (μg/m³),Mass concentration (μg/m³)
DateTimeUTC,F1_M11,P_M11,Q1_M11,Q2_M11,T1_M11,T2_M11,T3_M11,T4_M11,T5_M11,U1_M11,ZSPAN_M11,X0_M11,X2_M11,X1_M11
2022-11-24 15:00:00,,0835.1,4.99,0.00,21.9,20.5,00.0,30.9,23.6,12.2,0000.0,0001.86,0001.27,0001.14
2022-11-24 15:01:00,,0835.0,5.01,0.00,21.9,21.2,00.0,30.8,23.7,12.1,0000.0,0001.85,0001.27,0001.14
2022-11-24 15:02:00,,0835.0,5.00,0.00,22.0,22.3,00.0,30.8,24.0,11.9,0000.0,0001.87,0001.27,0001.14
2022-11-24 15:03:00,,0835.1,5.00,0.00,22.2,22.6,00.0,30.9,24.2,11.8,0000.0,0001.89,0001.29,0001.13
2022-11-24 15:04:00,,0835.1,4.99,0.00,22.2,22.2,00.0,30.9,24.2,11.9,0000.0,0001.83,0001.25,0001.11
2022-11-24 15:05:00,,0835.1,5.00,0.00,22.2,21.9,00.0,31.0,24.2,11.8,0000.0,0001.65,0001.17,0001.08
2022-11-24 15:06:00,,0835.1,5.00,0.00,22.2,21.6,00.0,31.0,24.1,11.6,0000.0,0001.53,0001.12,0001.05
2022-11-24 15:07:00,,0835.1,5.00,0.00,22.2,21.4,00.0,31.0,24.1,11.8,0000.0,0001.53,0001.10,0001.02
2022-11-24 15:08:00,,0835.1,5.00,0.00,22.2,21.3,00.0,31.0,24.1,12.1,0000.0,0001.62,0001.07,0000.99
2022-11-24 15:09:00,,0835.2,5.00,0.00,22.2,21.2,00.0,31.0,24.0,11.9,0000.0,0001.78,0001.03,0000.95
2022-11-24 15:10:00,,0835.2,5.00,0.00,22.2,21.1,00.0,31.0,24.0,12.1,0000.0,0001.67,0000.99,0000.91
2022-11-24 15:11:00,,0835.2,5.00,0.00,22.2,21.1,00.0,31.0,24.0,12.2,0000.0,0001.61,0000.96,0000.88
2022-11-24 15:12:00,,0835.2,5.00,0.00,22.2,21.0,00.0,31.1,23.9,12.3,0000.0,0001.82,0000.95,0000.87
2022-11-24 15:13:00,,0835.3,5.01,0.00,22.2,20.9,00.0,31.1,23.9,12.3,0000.0,0002.75,0000.91,0000.84
2022-11-24 15:14:00,,0835.4,5.00,0.00,22.2,20.9,00.0,31.1,23.9,12.4,0000.0,0002.69,0000.87,0000.81
2022-11-24 15:15:00,,0835.4,5.01,0.00,22.1,20.9,00.0,31.1,23.9,12.4,0000.0,0002.72,0000.87,0000.80
2022-11-24 15:16:00,,0835.4,5.00,0.00,22.1,20.8,00.0,31.1,23.8,12.2,0000.0,0002.70,0000.85,0000.79
2022-11-24 15:17:00,,0835.3,4.99,0.00,22.1,20.8,00.0,31.1,23.9,12.4,0000.0,0002.77,0000.86,0000.77
2022-11-24 15:18:00,,0835.3,5.00,0.00,22.1,20.8,00.0,31.1,23.9,12.3,0000.0,0002.75,0000.85,0000.75
2022-11-24 15:19:00,,0835.3,5.00,0.00,22.1,20.8,00.0,31.1,23.8,12.3,0000.0,0002.60,0000.84,0000.75
2022-11-24 15:20:00,,0835.3,5.01,0.00,22.1,20.8,00.0,31.0,23.8,12.3,0000.0,0002.42,0000.85,0000.76
2022-11-24 15:21:00,,0835.3,5.00,0.00,22.1,20.8,00.0,31.0,23.8,12.5,0000.0,0002.43,0000.86,0000.78
2022-11-24 15:22:00,,0835.4,5.00,0.00,22.1,20.8,00.0,31.0,23.8,12.6,0000.0,0002.56,0000.88,0000.80
2022-11-24 15:23:00,,0835.4,5.00,0.00,22.1,20.8,00.0,31.0,23.8,12.6,0000.0,0002.51,0000.87,0000.79
2022-11-24 15:24:00,,0835.4,4.99,0.00,22.1,20.8,00.0,31.0,23.7,12.3,0000.0,0001.33,0000.88,0000.79
2022-11-24 15:25:00,,0835.5,4.98,0.00,22.1,20.7,00.0,31.0,23.7,12.2,0000.0,0001.36,0000.89,0000.80
2022-11-24 15:26:00,,0835.6,5.00,0.00,22.1,20.7,00.0,31.0,23.8,12.3,0000.0,0001.32,0000.89,0000.81
2022-11-24 15:27:00,,0835.5,5.00,0.00,22.1,20.7,00.0,31.0,23.7,12.3,0000.0,0001.36,0000.90,0000.81
2022-11-24 15:28:00,,0835.5,5.02,0.00,22.1,20.7,00.0,31.0,23.7,12.2,0000.0,0001.36,0000.90,0000.81
2022-11-24 15:29:00,,0835.5,4.99,0.00,22.0,20.7,00.0,31.0,23.7,12.3,0000.0,0001.35,0000.90,0000.81
2022-11-24 15:30:00,,0835.6,4.98,0.00,22.1,20.7,00.0,31.0,23.8,12.3,0000.0,0001.36,0000.90,0000.80
2022-11-24 15:31:00,,0835.6,5.03,0.00,22.0,20.7,00.0,31.0,23.8,12.4,0000.0,0001.36,0000.89,0000.79
2022-11-24 15:32:00,,0835.6,4.98,0.00,22.1,20.7,00.0,31.0,23.8,12.3,0000.0,0001.36,0000.89,0000.77
2022-11-24 15:33:00,,0835.6,5.00,0.00,22.1,20.8,00.0,31.0,23.9,12.4,0000.0,0001.35,0000.92,0000.76
2022-11-24 15:34:00,,0835.6,5.02,0.00,22.1,20.8,00.0,31.0,23.9,12.6,0000.0,0001.36,0000.93,0000.77
2022-11-24 15:35:00,,0835.6,5.00,0.00,22.1,20.8,00.0,31.0,23.9,12.7,0000.0,0001.36,0000.94,0000.78
2022-11-24 15:36:00,,0835.7,4.99,0.00,22.1,20.9,00.0,31.0,24.0,13.0,0000.0,0001.43,0000.99,0000.83
2022-11-24 15:37:00,,0835.7,5.00,0.00,22.1,20.9,00.0,31.0,24.0,13.0,0000.0,0001.52,0001.06,0000.90
2022-11-24 15:38:00,,0835.7,5.01,0.00,22.1,20.9,00.0,31.0,24.0,12.8,0000.0,0001.61,0001.13,0000.97
2022-11-24 15:39:00,,0835.8,5.00,0.00,22.1,20.8,00.0,31.0,23.9,12.7,0000.0,0001.65,0001.17,0001.01
2022-11-24 15:40:00,,0835.8,5.00,0.00,22.1,20.8,00.0,31.0,23.9,12.7,0000.0,0001.86,0001.26,0001.07
2022-11-24 15:41:00,,0835.7,5.00,0.00,22.1,20.8,00.0,31.0,24.0,12.7,0000.0,0001.99,0001.33,0001.15
2022-11-24 15:42:00,,0835.8,5.00,0.00,22.1,20.8,00.0,31.0,24.0,12.8,0000.0,0002.10,0001.41,0001.21
2022-11-24 15:43:00,,0835.7,5.00,0.00,22.1,20.8,00.0,31.0,24.0,12.9,0000.0,0002.20,0001.49,0001.28
2022-11-24 15:44:00,,0835.8,4.99,0.00,22.1,20.8,00.0,31.0,23.9,12.8,0000.0,0002.18,0001.51,0001.35
2022-11-24 15:45:00,,0835.7,5.00,0.00,22.1,20.8,00.0,31.0,23.9,12.8,0000.0,0002.22,0001.55,0001.40
2022-11-24 15:46:00,,0835.7,5.00,0.00,22.1,20.8,00.0,31.0,23.9,12.8,0000.0,0002.29,0001.60,0001.45
2022-11-24 15:47:00,,0835.8,5.02,0.00,22.1,20.8,00.0,31.0,23.9,12.9,0000.0,0002.34,0001.63,0001.47
2022-11-24 15:48:00,,0835.9,5.00,0.00,22.1,20.8,00.0,31.0,23.9,12.7,0000.0,0002.33,0001.62,0001.46
2022-11-24 15:49:00,,0835.9,4.99,0.00,22.1,20.8,00.0,31.0,23.9,12.7,0000.0,0002.28,0001.59,0001.44
2022-11-24 15:50:00,,0835.8,4.99,0.00,22.1,20.8,00.0,31.0,23.9,12.5,0000.0,0002.23,0001.56,0001.42
2022-11-24 15:51:00,,0835.9,5.01,0.00,22.1,20.9,00.0,31.0,23.9,12.6,0000.0,0002.06,0001.52,0001.39
2022-11-24 15:52:00,,0835.9,5.01,0.00,22.1,20.8,00.0,31.0,24.0,12.7,0000.0,0001.98,0001.48,0001.36
2022-11-24 15:53:00,,0835.9,4.99,0.00,22.1,20.8,00.0,31.0,23.9,12.6,0000.0,0001.92,0001.44,0001.33
2022-11-24 15:54:00,,0835.9,4.99,0.00,22.1,20.8,00.0,31.0,23.9,12.8,0000.0,0001.94,0001.44,0001.30
2022-11-24 15:55:00,,0835.9,5.01,0.00,22.1,20.8,00.0,31.0,23.9,12.9,0000.0,0001.94,0001.44,0001.29
2022-11-24 15:56:00,,0835.9,5.01,0.00,22.1,20.8,00.0,31.0,23.9,13.0,0000.0,0002.04,0001.48,0001.31
2022-11-24 15:57:00,,0835.9,5.00,0.00,22.1,20.7,00.0,31.0,23.9,12.9,0000.0,0002.12,0001.52,0001.33
2022-11-24 15:58:00,,0836.0,4.99,0.00,22.1,20.7,00.0,31.0,23.9,13.0,0000.0,0002.14,0001.54,0001.34
2022-11-24 15:59:00,,0836.1,5.00,0.00,22.0,20.7,00.0,31.0,23.9,13.2,0000.0,0002.24,0001.60,0001.38
